Wind_Speed
9 9 9 10 10 11 11 12 12 11 11 11 11 11 11 12 13 13 14 14 14 14 14 13 13 13 13 12 12 12 12 12 11 9 8 8 9 10 10 10 10 10 10
9 9 10 10 11 11 11 12 12 12 12 12 12 12 12 13 13 14 14 14 14 14 13 13 13 13 13 13 13 13 13 13 12 10 10 10 11 11 11 11 11 11 11
10 10 10 10 10 10 11 11 12 12 12 12 12 12 12 13 13 14 14 14 14 13 13 13 13 13 13 13 13 13 13 13 12 11 11 12 12 13 13 13 12 12 13
9 9 9 9 9 9 9 9 10 10 10 11 11 11 11 11 12 13 13 13 13 13 13 13 13 13 14 14 13 13 14 13 12 12 12 13 13 14 13 14 13 13 14
7 7 7 7 7 7 7 7 8 8 8 8 8 8 9 9 10 11 12 12 12 13 13 13 13 13 14 14 14 14 14 13 13 13 13 13 14 14 14 14 14 14 14
6 6 5 5 6 6 6 6 6 6 6 6 5 5 6 7 8 9 10 11 12 12 12 12 12 13 14 14 15 15 14 14 14 14 14 14 14 13 13 14 14 15 15
5 4 4 3 3 3 4 4 4 4 4 3 3 3 4 5 6 8 9 10 11 11 11 12 12 13 14 15 16 16 15 14 15 15 15 15 14 14 14 14 15 16 16
4 3 2 2 2 2 2 3 3 2 2 1 1 1 2 3 5 6 8 9 10 11 12 12 13 14 15 16 17 17 15 15 16 16 15 15 15 14 14 15 16 16 16
4 4 4 4 4 4 4 3 3 2 2 1 1 1 2 3 4 6 8 9 11 11 12 12 13 14 16 17 18 18 16 15 16 16 16 16 16 15 15 15 16 17 16
5 5 6 6 5 5 5 4 4 3 3 3 3 3 3 4 5 7 8 10 11 12 12 13 14 15 17 19 19 18 16 15 16 15 15 16 15 15 16 15 16 16 16
6 6 6 6 5 5 5 4 4 4 4 4 4 4 4 5 6 7 8 10 11 13 14 15 16 17 18 19 20 18 16 15 15 15 15 16 16 16 16 16 17 17 17
6 6 5 5 4 4 4 4 4 4 4 5 5 5 5 6 7 7 9 11 13 14 15 16 17 18 20 21 21 19 17 16 15 16 16 17 18 18 18 18 18 18 18
6 5 4 3 2 2 3 3 3 4 5 5 5 6 6 6 7 8 10 12 13 15 16 17 18 20 21 22 22 20 18 17 17 17 18 18 19 19 20 20 20 21 20
6 5 5 3 2 1 2 3 3 3 4 5 5 5 6 7 8 10 11 13 14 14 14 16 18 20 22 23 23 22 21 20 19 20 20 21 22 22 22 22 23 23 24
8 6 5 4 3 2 1 1 2 3 3 4 4 5 5 7 9 11 11 13 13 14 14 15 16 18 20 22 23 22 22 22 22 22 23 24 25 25 25 25 26 27 27
9 8 7 6 6 5 3 3 3 3 3 4 4 5 6 7 9 11 12 13 14 14 15 16 16 17 19 21 22 22 23 24 25 25 25 26 27 28 29 29 30 30 30
12 9 8 8 7 7 6 5 5 5 6 7 7 8 9 9 10 11 13 12 13 13 15 16 16 16 17 19 21 23 25 27 27 27 27 28 29 29 30 31 32 33 34
15 12 11 10 9 8 8 8 8 8 8 10 10 11 12 12 12 13 14 14 14 14 14 15 16 16 16 17 19 22 25 27 29 29 29 29 30 31 32 32 34 35 36
17 15 13 12 12 12 12 11 11 11 11 13 14 15 15 15 15 15 15 16 16 16 16 16 16 16 16 16 18 20 22 25 27 28 29 30 32 33 33 34 36 37 38
19 17 16 14 15 16 16 15 15 16 17 17 18 19 19 18 18 18 18 18 19 18 18 17 17 17 16 16 17 18 20 23 26 28 28 30 31 32 32 34 36 37 39
19 16 14 14 17 18 20 20 20 21 22 23 23 23 23 23 22 22 21 20 20 19 19 19 19 17 18 18 18 19 20 21 23 25 27 29 30 31 32 34 36 37 39
17 16 17 17 20 21 22 24 25 26 26 27 27 28 27 26 25 25 25 23 22 22 22 22 21 20 20 20 20 21 21 22 23 25 26 28 30 32 34 36 38 40 42
20 19 19 21 22 24 26 28 28 29 29 29 30 30 30 29 28 27 27 26 24 25 25 24 24 24 24 24 24 24 25 25 27 28 28 30 33 35 37 39 41 43 45
23 24 24 26 27 30 30 29 30 31 32 32 31 31 32 32 30 29 29 28 28 28 28 27 27 27 27 28 28 29 30 30 31 31 33 35 37 39 41 43 46 48 50
28 28 29 30 32 33 33 34 35 35 35 34 34 35 34 33 32 32 31 30 30 30 29 30 30 30 31 32 32 33 34 35 35 36 38 40 42 44 46 49 51 53 55
31 32 33 35 35 36 38 39 38 38 37 37 37 36 35 34 33 33 32 32 32 31 32 32 33 34 35 36 37 38 39 39 40 42 43 45 47 49 52 54 56 58 61
Wind_Direction
252 244 241 241 241 239 238 241 244 247 251 256 262 268 272 277 280 282 284 284 284 284 283 281 278 276 274 271 269 266 263 258 254 251 250 248 247 248 248 248 251 255 261
257 249 244 241 239 238 239 243 248 251 254 258 262 265 270 275 279 282 283 283 282 282 280 279 276 274 272 270 268 268 266 264 261 257 256 255 255 255 254 255 257 260 263
254 250 243 238 238 238 241 245 249 251 254 257 260 263 269 274 278 280 281 281 281 279 278 277 276 275 273 272 271 269 268 268 269 268 267 264 262 259 257 257 257 259 261
245 240 237 234 234 236 240 243 245 247 251 255 258 263 269 274 278 279 280 280 279 278 277 277 277 277 277 276 274 272 272 274 275 274 272 269 264 261 257 255 254 256 257
230 228 229 228 227 228 232 236 238 240 245 250 255 262 269 273 275 277 279 278 278 277 276 277 278 279 279 278 276 275 275 277 277 276 273 270 268 263 259 253 252 253 254
219 220 221 222 223 225 227 228 229 232 237 241 249 260 271 276 276 277 278 278 277 276 276 277 279 279 280 279 277 276 276 277 276 274 274 272 270 264 255 251 254 256 256
208 209 209 212 214 215 214 211 209 211 218 226 241 256 272 280 281 281 282 281 281 281 280 279 280 279 278 278 277 275 276 276 275 274 274 273 271 266 258 260 261 260 259
186 179 169 150 141 150 154 155 157 160 165 168 181 255 299 298 294 291 289 290 290 289 287 285 283 280 278 277 276 276 277 276 276 277 276 277 272 266 266 264 262 261 261
168 154 136 121 117 119 116 113 113 120 113 94 59 18 346 322 309 306 305 303 301 299 296 292 287 283 280 279 278 279 279 278 278 278 277 277 276 274 271 265 263 263 262
157 143 134 125 118 113 107 102 94 86 71 58 43 25 5 343 329 324 320 314 310 306 302 297 292 288 285 282 282 284 285 283 282 280 278 277 278 275 272 267 265 264 263
158 147 138 132 122 113 106 95 86 78 67 55 36 17 2 348 338 333 326 320 314 310 306 301 296 293 289 286 285 287 288 286 283 281 277 273 276 274 271 268 267 265 262
169 160 153 143 128 115 102 88 79 72 62 52 42 31 17 1 350 340 332 326 320 312 307 303 298 294 290 287 286 287 287 284 282 279 276 272 273 273 271 270 268 266 264
186 184 177 170 139 105 91 79 72 64 57 50 43 33 22 11 359 349 339 332 325 319 308 301 299 295 291 288 286 287 285 281 279 275 273 274 272 272 270 270 270 269 268
203 202 205 208 194 107 76 69 64 54 50 48 41 32 23 13 360 357 355 345 331 327 319 309 304 297 291 287 285 285 283 280 276 273 273 273 272 271 271 270 271 271 271
212 216 223 239 248 257 300 23 35 30 31 35 33 23 13 6 357 355 353 347 341 333 327 320 315 306 297 291 284 282 281 279 277 274 272 272 273 272 272 271 271 270 271
220 228 241 255 270 277 286 312 333 343 346 345 351 355 349 347 347 350 348 344 342 340 337 331 323 314 305 296 286 281 279 277 277 276 273 272 272 272 273 273 272 271 271
221 226 240 255 271 284 293 302 317 328 329 326 324 325 323 327 333 337 339 340 337 335 334 330 326 319 308 299 289 282 279 277 277 276 274 273 274 274 274 274 273 274 274
220 224 233 248 260 271 284 292 300 311 315 313 313 311 310 313 317 325 332 331 328 325 325 328 326 320 311 301 289 284 281 277 278 278 275 274 274 274 273 273 274 275 275
223 229 233 247 260 268 277 286 293 298 299 299 301 302 301 301 306 314 321 323 322 323 324 324 325 320 313 305 294 286 280 279 279 279 278 275 275 274 273 275 275 275 275
231 236 241 252 267 277 282 288 293 297 297 296 294 294 293 294 297 304 311 315 314 316 319 318 320 317 315 311 304 295 288 284 281 280 280 278 277 276 275 275 275 275 276
233 239 247 259 271 279 286 291 294 297 297 297 294 292 293 293 296 299 304 306 307 309 312 313 312 311 311 310 308 302 296 292 288 284 283 280 279 278 278 277 276 276 276
247 249 255 265 273 277 282 288 291 293 295 295 294 292 293 294 296 296 297 300 301 302 304 305 303 303 303 304 305 304 300 295 290 287 285 283 281 281 280 279 279 278 277
263 263 269 269 273 278 278 281 285 287 291 291 291 291 291 292 292 293 296 297 297 298 299 298 295 296 296 297 298 297 298 296 292 289 287 286 285 284 282 281 281 280 279
273 274 279 277 281 281 278 280 283 285 289 289 289 289 289 290 290 292 295 296 297 296 296 294 291 291 292 293 294 294 294 294 292 290 289 288 286 285 284 283 282 282 282
276 278 281 283 284 285 285 285 287 288 288 290 289 289 289 289 291 292 293 294 294 294 293 292 291 290 290 291 291 292 292 292 291 289 288 288 287 285 284 283 283 282 281
274 276 279 281 283 286 287 285 287 288 288 288 287 287 288 290 290 289 290 291 291 292 291 290 290 289 290 290 290 290 290 290 290 288 287 287 286 285 285 284 283 282 282
Height
5906 5906 5906 5906 5907 5908 5909 5909 5910 5910 5911 5911 5912 5912 5912 5912 5911 5911 5911 5911 5910 5910 5909 5909 5908 5907 5906 5906 5905 5905 5905 5904 5904 5904 5904 5904 5904 5904 5903 5903 5903 5903 5903
5904 5904 5905 5905 5905 5906 5907 5908 5909 5909 5910 5910 5910 5911 5911 5910 5910 5910 5909 5909 5909 5908 5907 5907 5906 5905 5905 5904 5904 5903 5903 5903 5903 5903 5903 5903 5903 5902 5902 5902 5901 5901 5901
5902 5903 5903 5903 5904 5905 5906 5907 5907 5908 5908 5908 5909 5909 5909 5909 5909 5908 5908 5907 5907 5906 5905 5905 5904 5903 5903 5902 5902 5902 5901 5901 5901 5901 5901 5901 5900 5900 5900 5900 5899 5899 5899
5901 5901 5902 5902 5903 5904 5904 5905 5906 5906 5906 5907 5907 5907 5908 5907 5907 5907 5906 5906 5905 5904 5904 5903 5902 5902 5901 5900 5900 5900 5900 5899 5899 5899 5899 5898 5898 5897 5897 5897 5897 5897 5897
5900 5900 5901 5901 5902 5902 5903 5904 5904 5905 5905 5905 5906 5906 5906 5906 5906 5906 5905 5904 5904 5903 5902 5902 5901 5900 5900 5899 5899 5898 5898 5898 5898 5897 5897 5896 5895 5895 5895 5895 5895 5895 5894
5899 5899 5900 5900 5901 5901 5902 5903 5903 5903 5904 5904 5904 5905 5905 5905 5905 5904 5904 5903 5902 5902 5901 5901 5900 5899 5898 5898 5897 5896 5897 5897 5896 5895 5894 5894 5893 5893 5892 5892 5893 5892 5892
5898 5899 5899 5900 5900 5901 5901 5902 5902 5903 5903 5903 5903 5904 5904 5904 5904 5903 5903 5902 5902 5901 5901 5900 5899 5898 5897 5896 5894 5894 5895 5896 5894 5893 5893 5892 5891 5891 5890 5891 5891 5890 5890
5898 5899 5899 5899 5900 5901 5901 5902 5902 5903 5903 5903 5903 5903 5903 5903 5903 5903 5902 5901 5901 5900 5900 5899 5898 5897 5895 5893 5892 5892 5893 5894 5893 5892 5891 5890 5890 5889 5889 5888 5888 5888 5887
5897 5898 5899 5900 5900 5901 5901 5902 5902 5903 5903 5903 5903 5903 5903 5903 5902 5902 5901 5900 5899 5899 5898 5897 5896 5894 5893 5891 5890 5890 5891 5891 5890 5890 5889 5888 5888 5887 5887 5886 5886 5885 5885
5898 5898 5899 5900 5901 5901 5901 5902 5902 5903 5903 5903 5903 5903 5903 5902 5902 5901 5900 5899 5898 5897 5896 5895 5893 5892 5890 5888 5887 5888 5889 5889 5888 5887 5887 5886 5885 5885 5884 5884 5883 5883 5882
5898 5899 5899 5900 5901 5901 5902 5902 5902 5902 5903 5903 5902 5902 5902 5901 5901 5900 5899 5898 5896 5895 5894 5892 5891 5889 5887 5885 5884 5885 5886 5886 5885 5884 5884 5883 5883 5882 5881 5881 5881 5880 5879
5898 5899 5900 5900 5901 5901 5901 5901 5902 5902 5902 5902 5902 5901 5901 5900 5899 5899 5898 5896 5895 5893 5891 5890 5888 5886 5884 5882 5881 5883 5883 5883 5882 5881 5880 5880 5880 5879 5879 5878 5878 5877 5877
5898 5899 5899 5900 5900 5900 5901 5901 5901 5901 5901 5901 5901 5900 5899 5899 5898 5897 5896 5894 5892 5890 5888 5887 5885 5883 5881 5879 5878 5879 5880 5879 5879 5878 5877 5877 5876 5876 5876 5875 5875 5874 5873
5896 5898 5898 5899 5899 5900 5900 5900 5900 5900 5900 5900 5899 5898 5898 5897 5895 5894 5893 5891 5889 5887 5885 5883 5881 5879 5876 5875 5875 5875 5876 5875 5875 5874 5873 5873 5872 5871 5871 5870 5870 5870 5869
5894 5896 5897 5897 5898 5898 5898 5898 5898 5898 5898 5898 5897 5896 5896 5894 5893 5892 5890 5889 5886 5884 5881 5879 5877 5874 5872 5870 5870 5870 5871 5871 5870 5870 5869 5868 5867 5866 5865 5865 5865 5864 5864
5892 5893 5894 5895 5896 5896 5896 5896 5896 5896 5895 5895 5894 5894 5893 5892 5891 5890 5888 5886 5883 5880 5877 5875 5872 5870 5868 5865 5865 5865 5865 5865 5865 5864 5863 5863 5862 5861 5860 5859 5858 5857 5857
5890 5890 5891 5893 5893 5893 5893 5894 5893 5893 5892 5891 5891 5890 5890 5889 5888 5886 5884 5882 5880 5877 5875 5872 5869 5866 5864 5862 5860 5860 5859 5858 5858 5857 5857 5856 5855 5854 5853 5852 5851 5850 5849
5887 5888 5889 5890 5890 5891 5891 5891 5891 5890 5889 5888 5887 5886 5885 5884 5883 5882 5880 5878 5876 5873 5871 5869 5866 5863 5860 5858 5856 5855 5853 5852 5851 5850 5849 5849 5848 5847 5846 5845 5843 5842 5841
5882 5884 5885 5885 5886 5886 5887 5887 5887 5886 5886 5885 5884 5882 5881 5879 5878 5876 5875 5873 5871 5869 5866 5864 5862 5859 5857 5855 5852 5850 5848 5847 5845 5843 5842 5841 5841 5839 5838 5837 5836 5834 5832
5877 5878 5879 5880 5881 5880 5880 5881 5881 5880 5880 5880 5879 5877 5875 5873 5872 5870 5869 5868 5866 5864 5861 5859 5857 5855 5853 5851 5848 5846 5844 5842 5840 5838 5836 5834 5833 5832 5831 5829 5827 5826 5824
5872 5873 5873 5875 5876 5875 5874 5874 5874 5873 5873 5873 5872 5870 5868 5867 5865 5864 5864 5862 5860 5859 5857 5855 5853 5851 5849 5847 5845 5842 5840 5837 5835 5832 5830 5827 5826 5824 5822 5820 5818 5816 5814
5867 5869 5868 5870 5872 5871 5869 5868 5867 5867 5866 5865 5864 5862 5861 5860 5859 5859 5857 5856 5855 5853 5852 5850 5848 5846 5844 5842 5840 5838 5835 5833 5830 5827 5824 5821 5819 5817 5814 5811 5809 5807 5804
5863 5863 5864 5866 5865 5865 5864 5862 5861 5860 5859 5858 5857 5856 5854 5853 5852 5852 5851 5850 5848 5847 5845 5844 5842 5841 5839 5837 5835 5833 5830 5827 5824 5821 5818 5815 5812 5809 5805 5802 5799 5796 5793
5859 5860 5860 5859 5859 5859 5856 5854 5853 5853 5852 5851 5850 5849 5848 5847 5845 5844 5843 5842 5841 5840 5839 5837 5836 5834 5832 5830 5828 5825 5823 5820 5817 5814 5810 5807 5803 5799 5796 5792 5788 5785 5781
5854 5854 5855 5854 5853 5851 5848 5849 5848 5846 5846 5845 5843 5842 5840 5839 5838 5837 5836 5835 5834 5833 5831 5829 5828 5826 5824 5822 5820 5817 5814 5812 5809 5805 5802 5798 5793 5789 5784 5780 5776 5772 5768
5847 5848 5847 5846 5845 5843 5842 5841 5840 5840 5839 5838 5836 5834 5833 5831 5830 5829 5828 5827 5826 5825 5823 5821 5819 5818 5816 5813 5810 5807 5805 5802 5799 5795 5791 5787 5782 5777 5772 5766 5762 5758 5753